Flag for U.S.A. Weather past 2 weeks in Glendale, California, U.S.A.

Now
61 °F

Sunny.


Feels Like: 61 °F
Forecast: 38 / 59 °F
Wind: 7 mph from South

Location: Burbank-Glendale-Pasadena Airport

Current Time: Dec 27, 2014 at 3:02:39 PM

Latest Report: Dec 27, 2014 at 1:53 PM


Visibility: 10 mi

Pressure: 30.24 "Hg

Humidity: 18%

Dew point: 17 °F

Location of GlendaleLocation

Historic Weather in Glendale — Graph

°F

Glendale temperature yesterday

Maximum temperature yesterday: 61 °F (at 12:53 PM)
Minimum temperature yesterday: 44 °F (at 5:53 AM)
Average temperature yesterday: 52 °F

Past Weeks' High & Low Weather Summary

 TemperatureHumidityPressure
High81 °F (Dec 23, 12:53 PM)94% (Dec 16, 11:00 PM)30.32 "Hg (Dec 16, 11:00 PM)
Low36 °F (Dec 27, 6:53 AM)16% (Dec 26, 12:53 PM)29.77 "Hg (Dec 25, 12:53 AM)
Average56 °F61%30.04 "Hg
* Reported Dec 12 1:53 PM — Dec 27 1:53 PM, Glendale, Weather by CustomWeather, © 2014

Note: Actual official high and low records may vary slightly from our data, if they occured in-between our weather recording intervals... More about our weather records

Advertising

Glendale weather history for previous 24 hours

 ConditionsComfort  
Time TempWeatherWind HumidityBarometerVisibility
1:53 PM
Dec 27
61 °FSunny.7 mph18%30.24 "Hg10 mi
12:53 PM59 °FSunny.3 mph17%30.24 "Hg10 mi
11:53 AM59 °FSunny.6 mph18%30.28 "Hg10 mi
10:53 AM56 °FSunny.No wind22%30.30 "Hg10 mi
9:53 AM54 °FSunny.No wind23%30.32 "Hg10 mi
8:53 AM50 °FSunny.No wind29%30.29 "Hg10 mi
7:53 AM41 °FSunny.3 mph47%30.27 "Hg10 mi
6:53 AM36 °FClear.No wind57%30.25 "Hg10 mi
5:53 AM39 °FClear.3 mph46%30.23 "Hg10 mi
4:53 AM38 °FClear.No wind53%30.22 "Hg10 mi
3:53 AM40 °FClear.No wind47%30.20 "Hg10 mi
2:53 AM41 °FClear.No wind45%30.21 "Hg10 mi
1:53 AM45 °FClear.No wind35%30.19 "Hg10 mi
12:53 AM47 °FClear.3 mph30%30.17 "Hg10 mi
11:53 PM
Dec 26
46 °FClear.No wind33%30.18 "Hg10 mi
10:53 PM46 °FClear.6 mph34%30.18 "Hg10 mi
9:53 PM47 °FClear.No wind33%30.17 "Hg10 mi
8:53 PM49 °FClear.3 mph26%30.14 "Hg10 mi
7:53 PM50 °FClear.5 mph25%30.12 "Hg10 mi
6:53 PM51 °FClear.6 mph27%30.11 "Hg10 mi
5:53 PM54 °FClear.No wind31%30.08 "Hg10 mi
4:53 PM57 °FClear.5 mph26%30.05 "Hg10 mi
3:53 PM60 °FSunny.9 mph19%30.03 "Hg10 mi
Weather by CustomWeather, © 2014

See weather overviewHow to use our weather pages